TimeEST,TemperatureF,Dew PointF,Humidity,Sea Level PressureIn,VisibilityMPH,Wind Direction,Wind SpeedMPH,Gust SpeedMPH,PrecipitationIn,Events,Conditions,WindDirDegrees,DateUTC
12:33 AM,48.2,44.6,87,30.23,10.0,Calm,Calm,-,N/A,,Overcast,0,2012-12-04 05:33:00
12:53 AM,48.0,44.1,86,30.25,10.0,SE,4.6,-,N/A,,Overcast,140,2012-12-04 05:53:00
1:53 AM,50.0,46.0,86,30.24,9.0,South,4.6,-,N/A,,Overcast,170,2012-12-04 06:53:00
2:53 AM,48.9,46.0,90,30.24,8.0,South,3.5,-,N/A,,Overcast,180,2012-12-04 07:53:00
3:06 AM,50.0,46.4,87,30.23,7.0,Calm,Calm,-,N/A,,Overcast,0,2012-12-04 08:06:00
3:25 AM,50.0,46.4,87,30.22,3.0,South,4.6,-,0.02,Rain,Rain,190,2012-12-04 08:25:00
3:38 AM,50.0,48.2,94,30.22,3.0,Calm,Calm,-,0.04,Rain,Light Rain,0,2012-12-04 08:38:00
3:49 AM,48.2,48.2,100,30.22,2.5,Calm,Calm,-,0.06,Rain,Light Rain,0,2012-12-04 08:49:00
3:53 AM,48.9,48.0,97,30.24,3.0,Calm,Calm,-,0.06,Rain,Light Rain,0,2012-12-04 08:53:00
4:31 AM,50.0,48.2,94,30.21,2.5,Calm,Calm,-,0.00,,Overcast,0,2012-12-04 09:31:00
4:45 AM,50.0,48.2,94,30.21,1.5,Calm,Calm,-,0.03,Rain,Light Rain,0,2012-12-04 09:45:00
4:53 AM,51.1,48.9,92,30.23,1.8,WSW,3.5,-,0.04,Rain,Light Rain,240,2012-12-04 09:53:00
4:58 AM,51.8,48.2,88,30.21,3.0,Calm,Calm,-,0.00,Rain,Light Rain,0,2012-12-04 09:58:00
5:19 AM,51.8,50.0,94,30.21,2.5,SSW,3.5,-,0.01,Rain,Light Rain,210,2012-12-04 10:19:00
5:35 AM,51.8,50.0,94,30.21,1.5,Calm,Calm,-,0.01,,Overcast,0,2012-12-04 10:35:00
5:43 AM,51.8,50.0,94,30.21,3.0,WSW,3.5,-,0.01,,Overcast,240,2012-12-04 10:43:00
5:53 AM,51.1,50.0,96,30.24,4.0,WSW,3.5,-,0.01,,Overcast,240,2012-12-04 10:53:00
6:17 AM,51.8,50.0,94,30.21,3.0,Calm,Calm,-,0.01,Rain,Light Rain,0,2012-12-04 11:17:00
6:29 AM,51.8,50.0,94,30.21,2.0,South,3.5,-,0.01,Rain,Light Rain,190,2012-12-04 11:29:00
6:44 AM,51.8,50.0,94,30.21,2.5,SSW,3.5,-,0.01,,Overcast,200,2012-12-04 11:44:00
6:53 AM,51.1,50.0,96,30.24,1.8,Calm,Calm,-,0.01,,Overcast,0,2012-12-04 11:53:00
7:14 AM,51.8,50.0,94,30.21,0.5,South,4.6,-,N/A,Fog,Fog,190,2012-12-04 12:14:00
7:36 AM,51.8,50.0,94,30.22,0.2,SSW,6.9,-,N/A,Fog,Fog,200,2012-12-04 12:36:00
7:53 AM,51.1,51.1,100,30.25,0.2,South,4.6,-,N/A,Fog,Fog,180,2012-12-04 12:53:00
8:53 AM,51.1,50.0,96,30.25,0.2,SSW,5.8,-,N/A,Fog,Fog,210,2012-12-04 13:53:00
9:53 AM,51.1,51.1,100,30.25,0.2,South,6.9,-,N/A,Fog,Fog,180,2012-12-04 14:53:00
10:53 AM,52.0,50.0,93,30.23,0.8,SW,3.5,-,N/A,,Mist,230,2012-12-04 15:53:00
10:59 AM,51.8,50.0,94,30.20,2.0,Variable,4.6,-,N/A,,Overcast,0,2012-12-04 15:59:00
11:07 AM,53.6,51.8,94,30.20,4.0,Variable,4.6,-,N/A,,Mostly Cloudy,0,2012-12-04 16:07:00
11:33 AM,55.4,51.8,88,30.18,9.0,Variable,4.6,-,N/A,,Scattered Clouds,0,2012-12-04 16:33:00
11:53 AM,57.0,52.0,83,30.19,10.0,Variable,4.6,-,N/A,,Scattered Clouds,0,2012-12-04 16:53:00
12:53 PM,57.9,52.0,81,30.16,10.0,SE,8.1,-,N/A,,Mostly Cloudy,130,2012-12-04 17:53:00
1:53 PM,54.0,50.0,86,30.14,8.0,SSW,9.2,-,N/A,,Partly Cloudy,200,2012-12-04 18:53:00
2:53 PM,55.0,51.1,86,30.13,6.0,South,8.1,-,N/A,,Scattered Clouds,190,2012-12-04 19:53:00
3:01 PM,55.4,51.8,88,30.11,5.0,SSW,11.5,-,N/A,,Mostly Cloudy,210,2012-12-04 20:01:00
3:53 PM,54.0,51.1,90,30.11,5.0,South,5.8,-,N/A,,Partly Cloudy,190,2012-12-04 20:53:00
4:53 PM,53.1,51.1,93,30.09,5.0,SSE,6.9,-,N/A,,Clear,150,2012-12-04 21:53:00
5:53 PM,51.1,50.0,96,30.09,4.0,SSE,5.8,-,N/A,,Clear,150,2012-12-04 22:53:00
6:53 PM,53.1,51.1,93,30.08,5.0,South,6.9,-,N/A,,Clear,180,2012-12-04 23:53:00
7:53 PM,53.1,50.0,89,30.05,7.0,SSW,9.2,-,N/A,,Clear,210,2012-12-05 00:53:00
8:53 PM,54.0,50.0,86,30.04,9.0,SSW,12.7,-,N/A,,Mostly Cloudy,210,2012-12-05 01:53:00
9:53 PM,55.0,50.0,83,30.01,10.0,SW,9.2,18.4,N/A,,Overcast,230,2012-12-05 02:53:00
10:53 PM,55.0,48.9,80,29.98,10.0,SW,10.4,19.6,N/A,,Overcast,230,2012-12-05 03:53:00
11:53 PM,55.0,48.9,80,29.95,10.0,WSW,9.2,17.3,N/A,,Overcast,240,2012-12-05 04:53:00